Lemoore NAS, CA

7:06 AM PST on January 18, 2018 (GMT -0800)
Lemoore Naval Air Station

Weather History for KNLC - February, 2013

Change the Weather History Date:

Sunday, February 3, 2013

  Actual Average Record
Temperature  
Mean Temperature 49 °F -  
Max Temperature 63 °F 56 °F 77 °F (2000)
Min Temperature 35 °F 38 °F 30 °F (2007)
Degree Days  
Heating Degree Days 16    
Moisture  
Dew Point 42 °F    
Average Humidity 89    
Maximum Humidity 100    
Minimum Humidity 56    
Precipitation  
Precipitation 0.00 in - - ()
Sea Level Pressure  
Sea Level Pressure 30.20 in    
Wind  
Wind Speed 5 mph (NW)    
Max Wind Speed 12 mph    
Max Gust Speed -    
Visibility 2 miles    
Events Fog    
Averages and records for this station are not official NWS values.
T = Trace of Precipitation, MM = Missing Value Source: NWS Daily Summary

Daily Weather History Graph

Daily Weather History Graph

Search for Another Location

Airport or City:

Trip Planner

Search our weather history database for the weather conditions in past years. The results will help you decide how hot, cold, wet, or windy it might be!

Date:

Astronomy

Feb. 03, 2013 Rise Set
Actual Time 6:59 AM PST 5:28 PM PST
Civil Twilight 6:32 AM PST 5:55 PM PST
Nautical Twilight 6:01 AM PST 6:26 PM PST
Astronomical Twilight 5:31 AM PST 6:56 PM PST
Moon 12:31 AM PST (2/3) 11:10 AM PST (2/3)
Length of Visible Light 11h 23m
Length of Day
10h 29m
Waning Gibbous, 47% of the Moon is Illuminated
Feb 3
Waning Gibbous
Feb 9
New
Feb 17
First Quarter
Feb 25
Full
Mar 4
Last Quarter

Hourly Weather History & Observations

Time (PST) Temp. Windchill Dew Point Humidity Pressure Visibility Wind Dir Wind Speed Gust Speed Precip Events Conditions
12:08 AM 44.6 °F 43.1 °F 42.8 °F 93% 30.22 in 2.5 mi North 3.5 mph - N/A   Clear
12:51 AM 42.8 °F - 41.0 °F 93% 30.22 in 1.8 mi Calm Calm - N/A   Clear
12:56 AM 42.1 °F - 39.0 °F 89% 30.22 in 2.0 mi Calm Calm - N/A   Clear
1:35 AM 42.8 °F 41.1 °F 39.2 °F 87% 30.22 in 3.0 mi WNW 3.5 mph - N/A   Clear
1:56 AM 43.0 °F 38.8 °F 41.0 °F 93% 30.23 in 2.5 mi NW 6.9 mph - N/A   Clear
2:48 AM 41.0 °F 37.1 °F 39.2 °F 93% 30.21 in 1.8 mi NW 5.8 mph - N/A   Clear
2:56 AM 39.0 °F 34.8 °F 37.9 °F 96% 30.22 in 1.5 mi WNW 5.8 mph - N/A   Clear
3:14 AM 41.0 °F 35.8 °F 39.2 °F 93% 30.21 in 2.0 mi WNW 8.1 mph - N/A   Clear
3:56 AM 41.0 °F 35.8 °F 39.0 °F 93% 30.21 in 2.0 mi WNW 8.1 mph - N/A   Clear
4:17 AM 41.0 °F 35.8 °F 39.2 °F 93% 30.20 in 1.8 mi NW 8.1 mph - N/A   Clear
4:33 AM 41.0 °F 36.4 °F 41.0 °F 100% 30.19 in 1.2 mi NW 6.9 mph - N/A   Clear
4:41 AM 41.0 °F 36.4 °F 39.2 °F 93% 30.19 in 1.5 mi NW 6.9 mph - N/A   Clear
4:56 AM 41.0 °F 37.1 °F 39.9 °F 96% 30.20 in 1.5 mi WNW 5.8 mph - N/A   Clear
5:22 AM 39.2 °F 35.0 °F 37.4 °F 93% 30.19 in 2.0 mi WNW 5.8 mph - N/A   Clear
5:56 AM 39.0 °F - 37.9 °F 96% 30.20 in 1.8 mi Calm Calm - N/A   Clear
6:11 AM 39.2 °F 35.9 °F 39.2 °F 100% 30.19 in 1.0 mi NNW 4.6 mph - N/A   Clear
6:17 AM 37.4 °F - 37.4 °F 100% 30.19 in 0.8 mi Calm Calm - N/A   Mist
6:27 AM 37.4 °F 33.8 °F 37.4 °F 100% 30.19 in 0.5 mi NW 4.6 mph - N/A Fog Fog
6:31 AM 39.2 °F 35.9 °F 37.4 °F 93% 30.19 in 1.0 mi NW 4.6 mph - N/A   Mist
6:38 AM 37.4 °F 33.8 °F 37.4 °F 100% 30.19 in 1.0 mi NW 4.6 mph - N/A   Mist
6:45 AM 37.4 °F 34.9 °F 35.6 °F 93% 30.20 in 0.8 mi NW 3.5 mph - N/A   Mist
6:56 AM 37.9 °F 35.5 °F 37.0 °F 97% 30.21 in 1.0 mi WNW 3.5 mph - N/A   Clear
7:04 AM 37.4 °F 34.9 °F 37.4 °F 100% 30.20 in 0.8 mi WNW 3.5 mph - N/A   Clear
7:17 AM 35.6 °F 32.8 °F 35.6 °F 100% 30.20 in 1.0 mi WNW 3.5 mph - N/A   Mist
7:56 AM 39.0 °F 34.8 °F 37.9 °F 96% 30.22 in 1.0 mi NNW 5.8 mph - N/A   Mist
8:05 AM 39.2 °F 35.0 °F 39.2 °F 100% 30.22 in 1.0 mi NNW 5.8 mph - N/A   Mist
8:11 AM 41.0 °F 35.8 °F 39.2 °F 93% 30.23 in 0.2 mi NNW 8.1 mph - N/A Fog Fog
8:17 AM 41.0 °F 36.4 °F 41.0 °F 100% 30.23 in 0.2 mi NNW 6.9 mph - N/A Fog Fog
8:28 AM 42.8 °F 37.5 °F 42.8 °F 100% 30.23 in 0.2 mi NNW 9.2 mph - N/A Fog Fog
8:45 AM 42.8 °F 37.0 °F 42.8 °F 100% 30.24 in 0.2 mi NNW 10.4 mph - N/A Fog Fog
8:56 AM 43.0 °F 37.2 °F 43.0 °F 100% 30.25 in 0.2 mi NW 10.4 mph - N/A Fog Fog
9:35 AM 46.4 °F 41.1 °F 44.6 °F 93% 30.25 in 0.2 mi NW 11.5 mph - N/A Fog Fog
9:43 AM 46.4 °F 41.5 °F 46.4 °F 100% 30.25 in 0.5 mi NW 10.4 mph - N/A Fog Fog
9:56 AM 46.9 °F - 46.0 °F 97% 30.25 in 1.0 mi NNW 11.5 mph - N/A   Overcast
10:07 AM 48.2 °F - 46.4 °F 93% 30.24 in 1.8 mi NNW 11.5 mph - N/A   Mostly Cloudy
10:14 AM 50.0 °F - 46.4 °F 87% 30.24 in 2.5 mi NNW 9.2 mph - N/A   Mostly Cloudy
10:21 AM 51.8 °F - 46.4 °F 82% 30.24 in 2.5 mi NNW 9.2 mph - N/A   Haze
10:32 AM 53.6 °F - 46.4 °F 77% 30.24 in 3.0 mi NNW 11.5 mph - N/A   Haze
10:56 AM 55.9 °F - 46.9 °F 72% 30.23 in 4.0 mi NW 9.2 mph - N/A   Haze
11:56 AM 59.0 °F - 46.0 °F 62% 30.20 in 7.0 mi North 8.1 mph - N/A   Mostly Cloudy
12:56 PM 61.0 °F - 46.0 °F 58% 30.17 in 6.0 mi NW 5.8 mph - N/A   Haze
1:56 PM 63.0 °F - 46.9 °F 56% 30.15 in 6.0 mi North 6.9 mph - N/A   Haze
2:56 PM 63.0 °F - 46.9 °F 56% 30.13 in 6.0 mi NNE 4.6 mph - N/A   Haze
3:56 PM 63.0 °F - 46.9 °F 56% 30.13 in 5.0 mi NW 3.5 mph - N/A   Haze
4:56 PM 60.1 °F - 46.9 °F 62% 30.13 in 5.0 mi NNW 6.9 mph - N/A   Haze
5:56 PM 55.0 °F - 46.9 °F 74% 30.13 in 6.0 mi North 10.4 mph - N/A   Haze
6:56 PM 48.9 °F - 45.0 °F 86% 30.14 in 5.0 mi NW 9.2 mph - N/A   Clear
7:56 PM 48.0 °F - 44.1 °F 86% 30.16 in 5.0 mi NNW 10.4 mph - N/A   Clear
8:56 PM 48.0 °F - 43.0 °F 83% 30.17 in 5.0 mi WNW 10.4 mph - N/A   Haze
9:56 PM 44.1 °F 40.1 °F 41.0 °F 89% 30.17 in 4.0 mi NW 6.9 mph - N/A   Clear
10:56 PM 43.0 °F 41.3 °F 41.0 °F 93% 30.17 in 3.0 mi NNW 3.5 mph - N/A   Clear
11:56 PM 42.1 °F 39.2 °F 39.0 °F 89% 30.16 in 4.0 mi West 4.6 mph - N/A   Clear